STARLINK-30378, 57787

Orbit data source: Space-Track

STARLINK-30378, 57787 is a payload satellite owned by SpaceX/Seattle (US) in LEO that was launched on Mon, 04 Sep 2023 UTC via an FALCON 9 launch vehicle from the Air Force Eastern Test Range (AFETR). Payload-class satellites include a variety of spacecraft equipped with specific instruments for various scientific and technological missions. These include communications satellites like Starlink; space stations such as the ISS; scientific satellites like the Hubble; Earth observation satellites from companies like Planet Labs, Umbra, and HawkEye 360; GPS; miniature CubeSats for education and research; and military/defense satellites.

Loading next visibility...
Identifier
57787, 2023-134S
Orbit
LEO
Country
Flag of USUS
Related business
Manufacturer
SpaceX/Seattle
Mission
Operational Commercial Communications
Bus & Motor
STARLINK V2M, Unknown motor
Mass
730 kg wet, ~700 kg dry
Launch date (UTC)
2023-09-04 (3 years ago)
Launch vehicle
FALCON 9
Launch site
Air Force Eastern Test Range (AFETR)
Object type
Payload
Rocket body
Debris
Shape & HBR
Box + 2 Pan, 17.7 m
Radar Cross Section
33.884 m², Large (>1 m²)

Expand to show TLE details & history
Last TLE update: 2 days ago

TLE from 2 days ago
0 STARLINK-30378
1 57787U 23134S   26171.46906257 -.00000228  00000-0  12249-5 0  9999
2 57787  43.0029 334.2042 0001137 283.5743  76.4982 15.27573555155222
Epoch: 2026-06-20T11:15Z
TLE epoch observation values (Epoch: 2026-06-20T11:15:27.006Z)
Latitude
Longitude
-103.34157°
Altitude
482.662 km
Speed
7.626 km/s
True Right ascension
22h 16m 49s
True Declination
0° 00' 00"
Sunlit
Object was in full shadow at epoch
Visualization orbit readout
Latitude
Unknown
Longitude
Unknown
Altitude
Unknown
Speed
Unknown
Apparent Right ascension
Unknown
Apparent Declination
Unknown
Sunlit
N/A
Visualization observer readout
Local Sidereal Time
21:34:21
Azimuth
Unknown
Elevation
Unknown
Doppler factor
Unknown
Orbital elements
Apogee altitude
485.793 km
Perigee altitude
484.233 km
Semi-major axis
6,863.15 km
Eccentricity
0.00011
Inclination
43.0029°
RAAN
334.2042°
Arg. of periapsis
283.5743°
True anomaly
76.51087°
Mean anomaly
76.4982°
Eccentric anomaly
76.50453°
Mean motion
3.81731 °/min
Orbital period
94.31 mins
BSTAR
0.0000012249
Loading maneuver chart data...
Computing Atmospheric mass density...
Loading historical data...
Loading historical data...
Loading historical data...
Loading historical data...
Loading historical data...
Loading historical data...
Loading historical data...

Documentation

Showing up to 5 results
|